User: anonymous   Login
Location: Strawberry
(45.6646°N, 111.9596°W)
Time: 17:30:59
(UTC+00:00)
Language:

ESTCUBE 1 - Orbit

View from above orbital plane
View from above orbital plane
View from above satellite
View from above satellite

Ground track
Ground track

The orbit data is extracted from the following two-line orbital elements,

1 39161U 13021C   22334.15945649  .00000945  00000-0  15362-3 0  9992
2 39161  97.8944  46.9990 0008374 249.7216 110.3126 14.73314826513869
Epoch (UTC): 30 November 2022 03:49:37
Eccentricity: 0.0008374
inclination: 97.8944°
perigee height: 644 km
apogee height: 656 km
right ascension of ascending node: 46.9990°
argument of perigee: 249.7216°
revolutions per day: 14.73314826
mean anomaly at epoch: 110.3126°
orbit number at epoch: 51386

The dashed part of the orbit path shows where the satellite is in the earth's shadow,  

DLR